Regional Weather Roundup
Issued by NWS

Home | Current Version | Previous Version | Graphics & Text | Print | Product List | Glossary On
Versions: 1 2 3 4 5 6 7 8 9 10 11 12 13 14 15 16 17 18 19 20 21 22 23 24 25 26 27 28 29 30 31 32 33 34 35 36 37 38 39 40 41 42 43 44 45 46 47 48 49 50
000
ASUS43 KDTX 171001
RWRMI
MICHIGAN HOURLY REGIONAL WEATHER ROUNDUP
NATIONAL WEATHER SERVICE DETROIT/PONTIAC MI
500 AM EST SUN DEC 17 2017

NOTE: "FAIR" INDICATES FEW OR NO CLOUDS BELOW 12,000 FEET WITH NO
SIGNIFICANT WEATHER AND/OR OBSTRUCTION TO VISIBILITY.

MIZ047>049-052>055-059>063-066>070-074>076-081>083-171100-
SOUTHEAST LOWER MICHIGAN

CITY           SKY/WX    TMP DP  RH WIND       PRES   REMARKS
ALMA           CLOUDY    23  21  91 NE7       30.19F WCI  15
ANN ARBOR      CLOUDY    23  18  81 NE6       30.17S WCI  16
BAD AXE        CLOUDY    24  20  85 E3        30.22S
CARO           CLOUDY    24  20  84 E5        30.20F WCI  19
DETROIT CITY   CLOUDY    26  20  77 NE8       30.20R WCI  18
DETROIT        CLOUDY    28  21  75 NE7       30.19R WCI  21
FLINT          CLOUDY    22  17  81 E8        30.18F WCI  12
GROSSE ILE     CLOUDY    25  21  84 NE12      30.18R WCI  14
HILLSDALE      FOG       27  27 100 SE10      30.12R VSB 1/2 WCI  17
HOWELL         CLOUDY    21  17  86 NE3       30.16S

CITY           SKY/WX    TMP DP  RH WIND       PRES   REMARKS
JACKSON        CLOUDY    25  21  85 E8        30.14R FOG     WCI  16
LAMBERTVILLE   CLOUDY    27  24  87 CALM      30.17S
LANSING        CLOUDY    21  17  84 E9        30.16F WCI  11
LAPEER         CLOUDY    25  19  78 E3        30.19F
MASON          CLOUDY    23  16  75 E5        30.16R WCI  16
MONROE         CLOUDY    26  20  80 NE6       30.17S WCI  19
MT. CLEMENS    CLOUDY    24  18  80 NE7       30.19R WCI  15
PONTIAC        CLOUDY    23  16  74 NE9       30.16S WCI  13
PORT HOPE        N/A     26  21  81 E10       30.22R WCI  16
PORT HURON     CLOUDY    25  16  68 E5        30.22S WCI  19
TRI CITIES     CLOUDY    24  21  88 E8        30.21F WCI  15
MIDLAND        CLOUDY    22  18  85 CALM      30.21S
TROY           CLOUDY    24  18  75 NE6       30.21F WCI  17
SAGINAW HB     CLOUDY    25  21  86 E6        30.21S WCI  18
$$
MIZ043>046-050>051-056>058-064>065-071>073-077>080-171100-
SOUTHWEST LOWER MICHIGAN

CITY           SKY/WX    TMP DP  RH WIND       PRES   REMARKS
BATTLE CREEK   CLOUDY    25  24  96 E7        30.13R FOG     WCI  17
BENTON HARBOR  PTCLDY    26  22  84 E6        30.09S FOG     WCI  19
BIG RAPIDS     CLOUDY    21  18  88 E6        30.17R WCI  13
COLDWATER      CLOUDY    27  27 100 SE7       30.12S FOG     WCI  19
HOLLAND        CLOUDY    23  20  88 E12       30.14R WCI  12
GRAND RAPIDS   CLOUDY    22  18  85 E14       30.14F WCI   9
IONIA          CLOUDY    22  18  86 E9        30.15F WCI  11
KALAMAZOO      CLOUDY    25  22  88 E6        30.12R FOG     WCI  18
LUDINGTON      CLOUDY    24  20  84 E7        30.16R WCI  16
MARSHALL       CLOUDY    26  25  98 E6        30.14R FOG     WCI  19
MOUNT PLEASANT CLOUDY    22  18  84 NE3       30.19S
MUSKEGON       CLOUDY    22  17  81 E10       30.15S WCI  11
SOUTH HAVEN    PTCLDY    26  23  87 E7        30.11R FOG     WCI  18
$$
MIZ016>042-171100-
NORTHERN LOWER MICHIGAN

CITY           SKY/WX    TMP DP  RH WIND       PRES   REMARKS
ALPENA         CLOUDY    17  14  88 CALM      30.25S
BEAVER ISLAND  CLOUDY    20  16  84 E7        30.23R WCI  11
BELLAIRE       CLOUDY    16  15  94 CALM      30.23F
CADILLAC       CLOUDY    18  17  96 E6        30.14S WCI  10
CHARLEVOIX     CLOUDY    15  13  91 E8        30.26R WCI   4
FRANKFORT      PTCLDY    21  17  83 E5        30.17F WCI  15
GAYLORD        CLOUDY    13   9  84 CALM      30.18S
GRAYLING       CLOUDY    13  10  84 E5        30.20S WCI   6
HARBOR SPRINGS CLOUDY     8   5  87 NE7       30.23S WCI  -3
HOUGHTON LAKE  CLOUDY    15  13  91 NE8       30.19S WCI   4
MANISTEE       CLOUDY    23  19  85 E13       30.15F WCI  11
OSCODA         CLOUDY    19  13  80 NW5       30.24R WCI  12
PELLSTON       CLOUDY    -5  -9  83 CALM      30.25F
ROGERS CITY    CLOUDY    18  14  83 S3        30.25F
TRAVERSE CITY  CLOUDY    18  14  84 SE7       30.20F WCI   9
$$
MIZ007>008-015-171100-
EASTERN UPPER MICHIGAN

CITY           SKY/WX    TMP DP  RH WIND       PRES   REMARKS
KINROSS        FLURRIES   1  -3  83 E9        30.26F WCI -14
MACKINAC ISLAN CLOUDY    13  10  85 NE12      30.23F WCI   0
NEWBERRY       CLOUDY     1   1  96 NE3       30.22F
S. S. MARIE    CLOUDY     0  -5  79 E6        30.27F WCI -12
MUNISING         N/A     12   7  80 VRB3      30.22F
$$
MIZ004>006-011>014-085-171100-
CENTRAL UPPER MICHIGAN

CITY           SKY/WX    TMP DP  RH WIND       PRES   REMARKS
MANISTIQUE     CLOUDY    10   5  78 NE6       30.22F WCI   1
ESCANABA       CLOUDY    17  14  88 NE5       30.22R WCI  10
MENOMINEE      CLOUDY    21  18  88 N7        30.18S WCI  12
$$
MIZ001>003-009>011-084-171100-
WESTERN UPPER MICHIGAN

CITY           SKY/WX    TMP DP  RH WIND       PRES   REMARKS
IRON MOUNTAIN  CLOUDY    17  13  84 VRB5      30.16R WCI  10
HOUGHTON       CLOUDY    20  15  81 S5        30.11F WCI  13
COPPER HARBOR    N/A     24  19  81 SW8       30.14F WCI  15
IRONWOOD       CLOUDY    21  19  92 SW7       30.11F WCI  12
$$

ABBREVIATIONS USED IN REMARKS
   TC - TEMPERATURE IN CELSIUS
  WCI - WIND CHILL INDEX
   HX - HEAT INDEX
  VSB - VISIBILITY





USA.gov is the U.S. government's official web portal to all federal, state and local government web resources and services.